Hourly Weather Roundup
Issued by NWS Central Illinois

Home | Current Version | Previous Version | Text Only | Print | Product List | Glossary On
Versions: 1 2 3 4 5 6 7 8 9 10 11 12 13 14 15 16 17 18 19 20 21 22 23 24 25 26 27 28 29 30 31 32 33 34 35 36 37 38 39 40 41 42 43 44 45 46 47 48 49 50
000
NZUS43 KILX 222110
HWRILX

Area Weather Roundup
National Weather Service Lincoln IL
300 PM CST WED NOV 22 2017

NOTE:  "FAIR" indicates few or no clouds below 12,000 feet, with
       no sigificant weather and/or obstructions to visibility.


CITY           SKY/WX    TMP DP  RH WIND       PRES   REMARKS
Bloomington    SUNNY     35  16  45 W5        30.29F WCI  31
Champaign      SUNNY     37  17  44 NW8       30.29F WCI  31
Danville       SUNNY     36  20  52 NW3       30.26F
Decatur        SUNNY     37  16  42 NW7       30.31R WCI  32
Effingham      SUNNY     38  20  49 NW3       30.31F
Flora          SUNNY     39  19  44 N5        30.30F
Galesburg      SUNNY     35  19  50 SW5       30.28F WCI  31
Jacksonville   SUNNY     36  15  42 CALM      30.31F
Lacon          SUNNY     35  15  44 W5        30.27F WCI  31
Lawrenceville  SUNNY     40  22  48 N8        30.30F WCI  34
Litchfield     SUNNY     36  19  50 N5        30.31R WCI  32
$$


CITY           SKY/WX    TMP DP  RH WIND       PRES   REMARKS
Lincoln        SUNNY     36  19  50 W3        30.31S
Macomb         SUNNY     37  17  44 SW5       30.30F WCI  33
Mattoon        SUNNY     37  19  48 N8        30.29F WCI  31
Mt Carmel AP   SUNNY     39  20  45 NW8       30.30S WCI  33
Olney-Noble AP SUNNY     37  16  41 N6        30.30F WCI  33
Paris AP       SUNNY     36  24  61 NW6       30.30S WCI  31
Peoria         SUNNY     36  15  42 S5        30.28F WCI  32
Pontiac        SUNNY     35  16  46 W6        30.29F WCI  30
Rantoul        SUNNY     37  19  49 NW5       30.30R WCI  33
Robinson       SUNNY     37  19  49 NW6       30.31F WCI  32
Springfield    SUNNY     39  17  41 NW5       30.31F
Taylorville    SUNNY     36  18  48 NW5       30.31S WCI  32
$$

...REGIONAL REPORTS...


CITY           SKY/WX    TMP DP  RH WIND       PRES   REMARKS
Chicago O`Hare PTSUNNY   34  14  43 W8        30.26S WCI  27
Kankakee       SUNNY     34  16  47 W5        30.29F WCI  30
Moline         CLOUDY    36  15  42 W7        30.28S WCI  30
Mount Sterling SUNNY     36  14  40 CALM      30.28F
Mount Vernon   SUNNY     39  18  42 NE3       30.30F
Pittsfield     SUNNY     38  17  43 SW3       30.30F
Quincy         SUNNY     36  14  40 SW5       30.28F WCI  32
Rockford       CLOUDY    37  15  40 SW7       30.27F WCI  32
$$


CITY           SKY/WX    TMP DP  RH WIND       PRES   REMARKS
Burlington     CLOUDY    35  18  49 SW7       30.27F WCI  29
Cedar Rapids   CLOUDY    34  13  41 SW8       30.24F WCI  27
Des Moines     PTSUNNY   38  12  34 S12       30.22F WCI  30
Kirksville     SUNNY     40  14  34 S7        30.27F
Ottumwa        PTSUNNY   38  12  34 S7        30.24F WCI  33
St Louis       MOSUNNY   40  18  41 NW5       30.31F
$$


CITY           SKY/WX    TMP DP  RH WIND       PRES   REMARKS
Terre Haute    SUNNY     38  21  50 W5        30.29F WCI  34
Evansville     SUNNY     41  23  48 N6        30.29F
Indianapolis   MOSUNNY   38  22  52 NW7       30.27F WCI  33
Lafayette      SUNNY     36  22  56 NW6       30.28F WCI  31
Madison        PTSUNNY   31  15  52 SW7       30.21F WCI  24
Milwaukee      CLOUDY    33  15  47 SW8       30.24F WCI  26
$$





USA.gov is the U.S. government's official web portal to all federal, state and local government web resources and services.